Temperature
20 19 19 18 18 18 18 17 17 17 16 16 16 16 16 15 15 15 15 15 15 15 14 14 14 14 14 14 14 14 14 14 14 14 14 14 14 14 14 13 13 13 13
19 19 19 19 18 18 18 17 17 17 16 16 16 16 15 15 15 15 15 15 15 15 15 14 14 14 14 14 14 14 14 14 14 14 14 13 13 13 13 13 13 13 13
20 19 19 19 18 18 18 17 17 17 16 16 16 16 15 15 15 15 15 15 15 14 14 14 14 14 14 14 14 14 14 14 14 14 14 14 13 13 13 13 13 13 13
19 19 19 19 18 18 18 17 17 17 16 16 16 16 16 15 15 15 15 15 14 14 14 14 14 14 14 14 14 14 13 13 13 13 13 13 13 13 13 13 13 13 13
20 20 19 19 19 18 18 18 17 17 16 16 16 16 15 15 15 15 15 14 14 14 14 14 14 14 14 14 13 13 13 13 13 13 13 13 13 13 13 13 13 13 13
20 20 20 19 19 18 18 18 17 17 16 16 16 16 15 15 15 15 14 14 14 14 14 14 14 14 14 13 13 13 13 13 13 13 13 13 13 13 13 13 13 13 12
19 19 19 19 19 18 18 18 17 17 17 16 16 16 15 15 15 15 14 14 14 14 14 14 14 14 14 13 13 13 13 13 13 13 13 13 13 13 13 13 13 12 12
19 19 19 19 19 18 18 18 17 17 17 16 16 16 15 15 15 14 14 14 14 14 14 14 14 14 13 13 13 13 13 13 13 13 13 13 13 13 13 13 13 12 12
19 19 19 19 19 19 18 18 17 17 17 16 16 16 15 15 15 14 14 14 14 14 14 14 14 13 13 13 13 13 13 13 13 13 13 13 13 12 12 12 12 12 12
19 19 19 19 19 19 18 18 17 17 17 16 16 15 15 15 15 14 14 14 14 14 14 14 14 13 13 13 13 13 13 13 13 12 12 12 12 12 12 12 12 12 12
19 19 19 19 19 18 18 18 17 17 16 16 16 15 15 15 14 14 14 14 14 14 14 13 13 13 13 13 13 13 13 13 12 12 12 12 12 12 12 12 12 12 12
19 19 19 18 18 18 18 17 17 17 16 16 16 15 15 15 14 14 14 14 14 14 13 13 13 13 13 13 13 13 12 12 12 12 12 12 12 12 12 12 12 12 12
18 18 18 18 18 18 17 17 17 17 16 16 16 15 15 15 14 14 14 14 14 13 13 13 13 13 13 13 13 13 12 12 12 12 12 12 12 12 11 11 11 11 11
18 18 18 17 17 17 17 17 17 17 16 16 16 15 15 15 14 14 14 14 13 13 13 13 13 13 13 13 13 13 12 12 12 12 12 11 11 11 11 11 11 11 11
17 17 17 17 17 17 17 17 17 16 16 16 15 15 15 14 14 14 14 13 13 13 13 13 13 12 12 12 12 12 12 12 12 12 12 11 11 11 11 11 11 10 10
17 17 17 17 16 16 16 16 16 16 16 15 15 15 15 14 14 14 14 13 13 13 13 13 13 12 12 12 12 12 12 12 12 12 11 11 11 11 11 11 10 10 10
17 17 17 17 16 16 16 16 16 16 16 15 15 15 14 14 14 14 14 13 13 13 13 13 12 12 12 12 12 12 12 12 12 11 11 11 11 11 11 10 10 10 10
16 16 16 16 16 16 16 16 15 15 15 15 15 14 14 14 14 14 14 13 13 13 13 13 12 12 12 12 12 12 12 12 11 11 11 11 11 11 10 10 10 10 10
16 16 16 16 16 16 16 16 15 15 15 15 14 14 14 14 14 14 13 13 13 13 13 13 12 12 12 12 12 12 12 11 11 11 11 11 11 10 10 10 10 10 10
16 16 16 16 16 16 15 15 15 15 14 14 14 14 14 13 13 13 13 13 13 13 13 12 12 12 12 12 12 11 11 11 11 11 11 10 10 10 10 10 10 10 10
16 15 15 15 15 15 15 15 15 14 14 14 14 14 13 13 13 13 13 13 12 12 12 12 12 12 12 11 11 11 11 11 11 10 10 10 10 10 10 10 9 9 9
15 15 15 15 15 15 14 14 14 14 14 14 14 13 13 13 13 12 12 12 12 12 12 12 12 11 11 11 11 11 11 10 10 10 10 10 10 10 9 9 9 9 9
14 14 14 14 14 14 14 14 14 14 14 13 13 13 13 13 12 12 12 12 12 12 11 11 11 11 11 11 11 11 10 10 10 10 10 9 9 9 9 9 9 9 8
14 14 14 14 14 14 14 14 13 13 13 13 13 13 12 12 12 12 12 12 11 11 11 11 11 11 10 10 10 10 10 9 9 9 9 9 9 9 9 9 8 8 8
13 13 13 14 14 13 13 13 13 13 13 12 12 12 12 12 11 11 11 11 11 11 11 10 10 10 10 10 10 9 9 9 9 9 9 9 8 8 8 8 8 8 8
13 13 13 13 13 13 13 13 12 12 12 12 12 12 12 11 11 11 11 10 10 10 10 10 10 10 9 9 9 9 9 8 8 8 8 8 8 8 8 8 7 7 7
Wind_Speed
7 4 4 5 5 5 5 5 5 4 4 3 2 2 1 1 1 2 3 3 4 4 4 3 3 3 3 3 4 4 4 3 2 3 3 4 4 4 4 4 4 5 6
4 4 4 5 6 6 6 5 5 5 4 3 2 2 2 1 1 2 3 3 3 4 4 3 3 3 3 3 3 3 2 2 2 2 2 2 3 3 3 3 3 3 4
8 6 6 6 6 7 7 7 6 5 5 4 3 3 3 3 2 2 1 2 2 3 3 3 3 3 3 3 3 4 4 2 1 1 3 2 1 1 2 2 2 3 2
6 6 7 7 7 7 6 6 6 5 5 5 5 5 3 2 2 1 0 1 2 2 3 3 3 2 2 3 3 3 3 3 2 1 1 1 3 2 1 2 2 2 2
6 8 8 8 7 7 7 6 6 5 5 5 6 5 3 2 1 1 1 1 1 1 2 2 2 2 2 3 2 2 3 2 3 2 2 2 1 1 2 1 2 2 2
5 6 6 5 5 5 6 6 6 5 5 6 5 6 5 4 3 2 2 1 0 0 0 1 1 2 2 2 2 2 3 2 2 2 2 2 2 2 3 2 1 1 2
5 4 5 6 6 7 7 6 6 6 5 6 6 6 6 6 6 4 4 3 1 1 2 1 1 1 2 2 2 2 2 2 2 2 2 2 2 2 3 3 2 1 2
4 5 6 7 7 8 8 7 8 7 6 7 6 5 5 4 4 4 4 4 3 3 2 2 2 2 2 2 2 1 1 1 2 2 2 1 2 3 3 3 3 1 1
4 5 4 6 7 8 8 9 9 7 7 7 6 5 5 5 5 4 4 3 3 2 2 3 2 2 2 2 3 2 1 1 1 1 1 1 1 1 2 3 3 4 2
3 3 3 5 6 6 6 6 7 8 7 7 7 6 6 6 5 4 5 4 4 3 3 3 3 2 2 2 3 2 2 2 1 1 1 0 0 1 1 2 2 2 3
3 3 3 3 3 4 5 6 6 6 6 7 6 6 6 5 5 5 5 5 3 4 4 3 3 3 3 3 3 3 3 3 2 1 1 1 1 1 1 1 2 2 2
3 3 2 2 2 3 4 5 6 6 7 6 6 6 6 5 5 5 5 5 4 4 4 3 3 3 3 3 4 4 3 3 3 2 2 2 1 1 1 1 2 2 2
1 1 1 2 3 4 4 5 5 6 5 6 6 6 6 6 6 6 5 5 5 4 4 4 4 4 4 4 4 4 4 4 4 3 3 3 2 2 2 2 2 2 2
2 2 2 2 3 3 4 4 4 4 4 5 6 6 7 7 6 6 5 5 5 5 5 4 4 4 4 4 4 4 4 4 4 4 4 4 4 4 4 3 3 2 2
0 2 2 2 2 2 2 3 4 4 4 4 5 5 5 5 5 5 5 5 5 5 5 4 3 3 4 4 5 5 5 4 4 4 4 4 5 6 5 3 3 3 3
2 2 2 2 2 3 3 3 4 4 4 4 5 4 4 4 5 5 5 5 4 4 4 4 5 4 4 5 6 5 5 5 5 5 4 4 4 5 6 6 6 6 4
2 3 3 4 4 3 3 4 4 3 4 4 4 4 4 4 4 5 5 5 5 4 4 4 4 5 5 6 6 6 5 5 5 5 4 4 3 4 3 4 4 5 6
3 3 3 3 3 2 2 3 2 3 3 3 3 4 4 4 3 4 5 5 4 4 4 5 5 4 5 6 6 6 4 4 4 5 5 5 4 4 4 3 2 2 3
3 3 3 2 2 2 2 2 2 2 3 3 4 4 4 4 3 4 4 4 4 4 4 3 4 4 5 5 5 5 3 3 4 4 4 5 5 5 5 4 3 2 3
2 1 1 0 1 2 1 2 2 3 4 5 5 4 4 4 4 4 4 3 3 3 3 2 3 4 5 5 6 5 3 3 3 3 3 5 5 5 6 5 4 4 4
2 1 1 1 2 2 1 2 2 4 5 4 3 3 4 4 4 3 3 3 3 3 2 2 2 3 4 5 6 6 4 4 4 3 3 4 5 5 6 6 5 6 4
2 1 1 2 2 1 2 2 4 5 3 2 3 3 3 3 3 3 3 3 3 3 2 2 2 2 3 4 5 6 6 5 4 4 4 4 5 5 5 4 5 5 3
3 2 2 2 2 1 2 4 5 3 2 3 3 3 2 3 3 4 4 2 3 3 3 2 2 2 2 2 4 5 6 6 5 4 4 4 4 4 3 4 4 3 3
3 2 1 2 3 3 3 4 3 2 3 3 3 3 3 2 2 3 3 3 4 3 3 3 3 3 2 2 2 2 3 4 4 3 3 3 2 2 2 2 2 2 3
3 2 2 3 4 4 4 3 2 2 3 3 3 3 3 3 3 2 3 4 4 5 5 4 4 4 4 5 5 4 3 4 4 3 1 1 1 2 1 1 2 2 2
3 2 3 3 4 3 4 3 3 3 4 4 4 3 3 3 3 3 1 1 2 3 4 4 4 4 5 5 5 6 6 6 6 3 2 3 3 4 4 4 3 3 3
Wind_Direction
233 216 198 182 167 158 157 158 148 143 129 114 115 109 101 65 55 63 83 107 120 124 117 115 115 116 119 126 125 116 98 80 85 77 47 29 34 42 40 37 42 41 42
217 210 189 177 177 175 173 168 166 163 163 153 140 132 124 100 78 46 58 82 116 133 138 133 141 135 129 125 131 125 112 86 70 104 90 26 4 10 25 23 34 32 38
208 206 193 187 180 181 183 182 178 174 173 150 112 89 71 56 48 39 34 36 93 117 129 139 140 144 146 154 156 145 138 144 68 84 133 137 216 315 347 8 22 18 25
204 200 194 191 191 193 185 180 175 172 171 157 151 146 147 162 196 183 157 59 93 107 118 131 140 147 152 160 171 155 154 149 154 83 71 132 153 148 336 336 349 4 15
199 199 199 196 193 186 179 178 171 173 171 168 168 161 158 170 147 120 111 84 59 90 115 143 145 152 161 168 165 156 156 156 163 167 149 108 88 126 154 259 318 341 336
205 205 200 184 182 177 171 170 173 180 174 172 172 173 171 166 154 162 161 168 339 2 99 152 154 162 164 174 176 167 166 171 167 171 168 166 167 176 164 192 236 277 292
202 201 192 187 187 183 181 178 179 186 181 178 182 186 182 176 182 188 189 187 196 226 239 202 195 187 185 179 160 160 173 180 180 185 190 188 194 174 161 163 188 232 279
204 206 206 199 195 191 188 185 189 193 187 188 191 188 183 181 192 193 190 198 204 212 210 202 205 199 180 171 154 155 182 171 180 190 184 187 205 186 178 172 164 172 288
216 215 212 205 196 193 194 192 192 195 194 195 191 189 189 190 198 199 195 202 207 204 193 195 197 192 175 168 155 163 181 156 162 173 173 186 217 193 193 183 179 173 207
229 223 212 211 201 198 197 192 194 199 198 193 194 197 198 200 199 194 203 206 206 202 192 197 191 189 184 169 163 171 173 155 174 169 155 172 221 154 168 180 187 185 184
223 220 218 215 195 182 186 194 199 200 198 197 197 197 201 200 195 200 207 203 199 195 199 203 195 193 194 184 173 183 175 171 180 183 173 209 187 162 177 171 172 179 178
227 213 198 169 168 184 193 199 202 204 206 198 196 201 200 194 199 209 210 199 198 201 203 198 195 202 198 190 187 191 186 186 193 200 196 233 205 197 195 180 193 196 188
239 201 176 182 196 204 202 202 205 208 205 195 195 201 202 200 205 209 206 198 197 203 202 196 201 208 204 198 199 195 196 202 208 202 201 220 201 226 219 200 201 197 186
200 184 192 208 216 214 206 203 211 206 197 189 194 204 209 207 206 204 202 202 199 202 206 204 207 207 205 202 201 198 203 210 217 213 209 213 208 217 216 211 204 186 173
160 190 190 206 225 236 228 212 213 203 187 182 197 211 210 202 199 202 206 204 202 208 205 200 206 208 205 209 202 199 203 207 216 224 224 224 221 220 214 210 195 180 181
234 237 224 211 226 230 228 222 219 205 185 190 201 202 190 192 198 202 201 198 204 206 198 202 204 210 221 218 209 201 204 206 211 224 232 235 235 234 231 226 211 191 188
231 224 227 225 229 232 222 218 220 200 183 195 199 189 185 192 203 199 193 201 205 199 203 210 207 214 225 221 215 209 204 207 217 224 226 235 235 229 225 232 228 221 215
243 232 239 244 240 231 225 213 194 180 183 192 203 200 189 195 198 192 200 208 202 197 204 211 212 215 229 224 219 211 203 206 222 225 217 216 231 224 205 198 208 227 234
241 236 233 233 223 225 219 179 187 190 192 201 207 206 194 191 190 196 206 205 192 197 203 202 201 206 231 224 213 200 192 209 229 233 221 212 221 225 202 187 199 234 260
273 261 271 245 227 251 188 162 200 203 220 224 216 203 190 188 195 202 206 199 184 191 190 206 211 210 226 225 210 196 189 207 229 239 238 226 223 222 204 195 194 218 240
287 260 203 225 246 237 163 190 214 230 233 224 204 192 191 193 195 189 186 175 170 169 181 202 230 225 230 226 212 201 195 205 216 226 236 235 224 222 216 208 201 215 215
311 274 216 261 270 211 174 217 239 245 228 197 192 197 196 195 188 175 181 173 163 164 184 199 243 252 243 231 219 207 208 205 205 220 231 231 220 217 216 212 208 209 204
299 292 248 266 288 249 203 223 251 240 198 186 196 205 200 193 178 174 177 172 168 173 192 199 224 251 247 236 232 220 215 212 214 223 224 224 214 210 217 217 210 201 186
293 297 287 271 276 272 252 240 250 210 191 198 204 197 187 191 187 179 180 181 188 191 198 209 223 241 245 235 224 219 224 219 224 234 224 215 200 190 204 212 217 209 194
296 282 254 258 269 274 271 260 237 201 202 208 209 201 193 188 193 198 202 202 210 205 200 210 210 212 236 234 213 205 213 208 210 197 195 187 186 199 218 224 219 208 199
287 288 284 279 279 276 274 264 231 204 201 212 212 206 201 196 190 189 216 270 223 219 213 211 208 224 229 228 218 223 228 218 195 180 204 218 218 216 218 219 222 217 216
Height
1520 1522 1524 1526 1527 1529 1530 1531 1532 1533 1533 1533 1534 1534 1534 1535 1535 1536 1536 1536 1536 1537 1537 1537 1538 1538 1538 1539 1539 1540 1540 1541 1541 1541 1541 1542 1542 1542 1542 1543 1543 1543 1543
1518 1520 1522 1524 1525 1527 1528 1530 1531 1532 1533 1533 1534 1534 1535 1535 1535 1535 1536 1536 1536 1537 1537 1537 1537 1538 1538 1539 1539 1540 1540 1540 1541 1542 1541 1542 1543 1542 1543 1543 1543 1543 1543
1515 1517 1519 1521 1523 1525 1527 1528 1530 1531 1532 1533 1534 1534 1534 1535 1535 1535 1535 1536 1536 1536 1537 1537 1537 1537 1538 1538 1539 1539 1540 1540 1541 1541 1542 1542 1542 1542 1543 1542 1543 1543 1543
1513 1515 1517 1519 1521 1523 1525 1527 1528 1530 1531 1532 1533 1533 1533 1534 1534 1534 1535 1535 1536 1536 1536 1536 1537 1537 1537 1538 1538 1539 1539 1540 1540 1541 1541 1542 1542 1542 1542 1542 1542 1542 1542
1511 1513 1515 1517 1519 1521 1523 1525 1527 1528 1530 1531 1532 1532 1533 1533 1534 1534 1534 1535 1535 1535 1535 1535 1536 1536 1536 1537 1537 1538 1539 1539 1539 1540 1540 1540 1541 1541 1541 1541 1541 1541 1541
1509 1511 1513 1515 1517 1520 1522 1523 1525 1527 1528 1529 1530 1531 1532 1532 1532 1533 1533 1534 1534 1534 1534 1535 1535 1535 1535 1536 1536 1537 1537 1538 1538 1539 1539 1539 1539 1539 1539 1539 1540 1540 1540
1506 1508 1511 1513 1515 1517 1519 1521 1523 1524 1526 1527 1528 1529 1530 1531 1531 1531 1532 1532 1533 1533 1533 1533 1533 1534 1534 1535 1535 1535 1536 1536 1537 1537 1537 1538 1538 1538 1538 1538 1538 1538 1538
1504 1506 1508 1510 1512 1515 1517 1519 1521 1522 1524 1525 1526 1527 1528 1529 1530 1530 1531 1531 1531 1531 1532 1532 1532 1532 1533 1533 1533 1534 1534 1535 1535 1535 1536 1536 1536 1536 1536 1536 1537 1536 1537
1503 1504 1506 1508 1510 1512 1514 1516 1518 1520 1521 1522 1524 1525 1526 1527 1528 1528 1529 1529 1529 1530 1530 1530 1530 1530 1531 1531 1531 1532 1532 1533 1533 1533 1534 1534 1534 1534 1534 1534 1535 1536 1535
1501 1503 1504 1506 1508 1510 1512 1514 1516 1517 1519 1520 1521 1523 1524 1525 1526 1526 1527 1527 1527 1528 1528 1528 1528 1528 1529 1529 1529 1530 1530 1530 1531 1531 1531 1532 1532 1532 1532 1532 1533 1533 1533
1500 1501 1502 1504 1506 1508 1510 1512 1513 1515 1516 1517 1519 1520 1521 1522 1523 1524 1524 1525 1525 1525 1526 1526 1526 1526 1526 1527 1527 1528 1528 1528 1529 1529 1529 1529 1530 1530 1530 1530 1530 1530 1530
1498 1500 1501 1502 1504 1506 1507 1509 1510 1512 1513 1515 1516 1517 1518 1520 1520 1521 1522 1522 1523 1523 1523 1524 1524 1524 1524 1524 1525 1525 1526 1526 1526 1527 1527 1527 1527 1527 1527 1527 1527 1527 1527
1496 1498 1499 1500 1502 1503 1505 1506 1508 1509 1510 1512 1513 1514 1515 1516 1517 1518 1519 1519 1520 1520 1521 1521 1521 1521 1522 1522 1522 1523 1523 1524 1524 1525 1525 1525 1525 1524 1524 1524 1524 1524 1524
1495 1496 1497 1498 1500 1501 1503 1504 1505 1506 1508 1509 1510 1511 1512 1513 1514 1515 1516 1516 1517 1517 1518 1518 1518 1519 1519 1519 1520 1520 1521 1521 1522 1522 1522 1522 1522 1522 1521 1521 1521 1521 1521
1493 1494 1495 1497 1498 1499 1500 1501 1503 1504 1505 1506 1507 1508 1509 1510 1511 1511 1512 1513 1514 1514 1515 1515 1515 1516 1516 1517 1517 1517 1518 1518 1519 1519 1519 1519 1519 1519 1519 1518 1518 1518 1518
1492 1493 1494 1495 1496 1497 1498 1499 1500 1501 1502 1503 1504 1505 1506 1506 1507 1508 1508 1509 1510 1511 1511 1512 1512 1513 1513 1514 1514 1515 1515 1515 1515 1515 1516 1516 1516 1516 1516 1515 1515 1515 1515
1491 1492 1492 1493 1494 1495 1495 1496 1497 1498 1499 1500 1501 1502 1502 1503 1504 1504 1505 1505 1506 1507 1507 1508 1509 1509 1510 1510 1511 1511 1512 1512 1512 1512 1512 1512 1512 1512 1512 1512 1512 1512 1512
1489 1490 1490 1491 1492 1493 1493 1494 1495 1495 1496 1497 1498 1498 1499 1499 1500 1500 1501 1502 1502 1503 1503 1504 1505 1506 1506 1507 1507 1508 1508 1508 1508 1508 1508 1508 1508 1509 1509 1508 1508 1509 1509
1488 1488 1489 1489 1490 1490 1490 1491 1492 1492 1493 1493 1494 1495 1496 1496 1496 1497 1497 1498 1498 1499 1500 1500 1501 1501 1502 1502 1503 1503 1503 1504 1504 1504 1504 1505 1505 1505 1505 1505 1504 1505 1505
1486 1486 1487 1487 1487 1488 1488 1488 1488 1489 1489 1490 1491 1491 1492 1492 1493 1493 1493 1494 1494 1495 1495 1496 1497 1497 1497 1498 1499 1499 1499 1499 1500 1500 1500 1500 1501 1501 1501 1501 1501 1501 1501
1484 1485 1485 1485 1485 1485 1485 1485 1485 1485 1486 1487 1487 1488 1488 1489 1489 1490 1490 1490 1491 1491 1491 1492 1492 1493 1493 1494 1494 1495 1495 1495 1495 1496 1496 1496 1496 1497 1497 1497 1497 1497 1498
1483 1482 1482 1482 1483 1483 1483 1482 1482 1482 1483 1483 1484 1484 1485 1485 1486 1486 1486 1487 1487 1487 1487 1488 1488 1489 1489 1490 1490 1490 1491 1491 1491 1491 1491 1492 1492 1492 1493 1493 1493 1493 1494
1481 1481 1480 1480 1480 1480 1480 1479 1479 1479 1479 1480 1480 1480 1481 1481 1482 1482 1483 1483 1483 1483 1483 1484 1484 1484 1485 1485 1486 1486 1486 1486 1486 1486 1487 1487 1487 1488 1488 1488 1489 1489 1489
1478 1478 1478 1477 1477 1477 1476 1476 1476 1476 1476 1476 1476 1476 1476 1477 1477 1478 1479 1479 1480 1480 1480 1480 1480 1480 1480 1480 1480 1480 1481 1481 1481 1482 1482 1483 1483 1483 1483 1484 1484 1484 1485
1476 1475 1475 1474 1473 1473 1473 1473 1473 1472 1472 1472 1472 1472 1472 1473 1473 1474 1474 1475 1476 1476 1476 1476 1476 1476 1475 1476 1476 1476 1476 1476 1476 1477 1477 1477 1478 1478 1478 1479 1479 1479 1480
1473 1472 1471 1471 1470 1469 1469 1469 1468 1468 1468 1467 1467 1467 1468 1468 1469 1469 1470 1470 1472 1472 1472 1472 1472 1472 1472 1472 1472 1472 1472 1472 1472 1472 1471 1472 1472 1472 1473 1473 1474 1474 1475